Flag for U.S.A. Weather past 2 weeks in Oberlin, Ohio, U.S.A.

Now
68 °F

Clear.


Feels Like: 68 °F
Forecast: 64 / 79 °F
Wind: 6 mph from Southwest

Location: Lorain County Regional Airport

Current Time: Jul 7, 2015 at 3:24:00 AM

Latest Report: Jul 7, 2015 at 2:53 AM


Visibility: 9 mi

Pressure: 29.95 "Hg

Humidity: 78%

Dew point: 61 °F

Location of OberlinLocation

Historic Weather in Oberlin — Graph

°F

Oberlin temperature yesterday

Maximum temperature yesterday: 83 °F (at 3:53 PM)
Minimum temperature yesterday: 59 °F (at 3:00 AM)
Average temperature yesterday: 72 °F

Past Weeks' High & Low Weather Summary

 TemperatureHumidityPressure
High83 °F (Jun 22, 3:53 PM)100% (Jul 3, 4:53 AM)30.16 "Hg (Jul 3, 4:53 AM)
Low54 °F (Jul 3, 4:53 AM)38% (Jul 5, 3:53 PM)29.58 "Hg (Jun 27, 4:53 PM)
Average67 °F77%29.94 "Hg
* Reported Jun 22 1:53 AM — Jul 7 1:53 AM, Oberlin, Weather by CustomWeather, © 2015

Note: Actual official high and low records may vary slightly from our data, if they occured in-between our weather recording intervals... More about our weather records

Advertising

Oberlin weather history for previous 24 hours

 ConditionsComfort  
Time TempWeatherWind HumidityBarometerVisibility
1:53 AM
Tue, Jul 7
67 °FClear.7 mph81%29.96 "Hg9 mi
12:53 AM68 °FClear.8 mph78%29.96 "Hg9 mi
11:53 PM
Mon, Jul 6
69 °FClear.8 mph79%29.98 "Hg9 mi
10:53 PM68 °FClear.No wind87%29.97 "Hg8 mi
9:53 PM70 °FSunny.3 mph84%29.96 "Hg9 mi
8:53 PM76 °FSunny.No wind69%29.97 "Hg9 mi
7:53 PM79 °FPassing clouds.No wind62%29.97 "Hg9 mi
6:53 PM82 °FSunny.No wind55%29.98 "Hg10 mi
5:53 PM82 °FPassing clouds.7 mph53%29.99 "Hg10 mi
4:53 PM83 °FSunny.7 mph53%29.99 "Hg10 mi
3:53 PM83 °FPassing clouds.7 mph51%30.01 "Hg10 mi
2:53 PM82 °FPassing clouds.No wind53%30.03 "Hg10 mi
1:53 PM80 °FSunny.8 mph56%30.04 "Hg10 mi
12:53 PM81 °FSunny.3 mph56%30.05 "Hg10 mi
11:53 AM79 °FSunny.5 mph58%30.06 "Hg10 mi
10:53 AM77 °FSunny.No wind60%30.07 "Hg10 mi
9:53 AM75 °FSunny.No wind64%30.08 "Hg10 mi
8:53 AM72 °FSunny.No wind68%30.07 "Hg9 mi
7:53 AM65 °FFog.No wind91%30.08 "Hg4 mi
6:53 AM61 °FFog.3 mph93%30.08 "Hg2 mi
5:53 AM60 °FFog.No wind93%30.07 "Hg3 mi
4:53 AM59 °FFog.3 mph93%30.06 "Hg5 mi
3:53 AM59 °FFog.No wind93%30.05 "Hg2 mi
3:00 AM59 °FFog.3 mph96%30.07 "Hg4 mi
Weather by CustomWeather, © 2015

See weather overviewHow to use our weather pages